sat.trackr.live / text

‹ back to catalog

STARLINK-35343

NORAD 67334 · 2026-003A

PAYLOAD ACTIVE UNKNOWN

§ Identity

Operator
Country
US
Launch date
2026-01-09
Launch site
AFETR
Launch vehicle
Mass (kg)
RCS (m²)

Purposes: comms

External: N2YO · Heavens-Above · Gunter

§ Orbital elements

Epoch: 2026-05-25T01:30:37.209888Z

Period
94.27 min
Inclination
43.0013°
Eccentricity
0.0000546
Mean motion
15.27603690 rev/d
Perigee alt
482.6 km
Apogee alt
483.4 km
Semi-major
6,861.1 km
B*
9.5686e-4
RAAN
155.8047°
Arg perigee
217.6603°
Mean anomaly
142.4211°
Rev number
2,050

§ Raw data

STARLINK-353431 67334U 26003A   26145.06293067  .00026181  00000+0  95686-3 0  99992 67334  43.0013 155.8047 0000546 217.6603 142.4211 15.27603690 20507

JSON: /api/v1/satellites/67334 · /tle

For live sub-satellite position, see the globe view (requires WebGL).

§ Visibility from observer

Set your observer location to see the next 7 days of passes ≥ 10°. The values pass through the URL so the page stays shareable.

No JS? Fill the form by hand. The geolocation button needs JavaScript.